Regional Weather Roundup
Issued by NWS

Home | Current Version | Previous Version | Graphics & Text | Print | Product List | Glossary On
Versions: 1 2 3 4 5 6 7 8 9 10 11 12 13 14 15 16 17 18 19 20 21 22 23 24 25 26 27 28 29 30 31 32 33 34 35 36 37 38 39 40 41 42 43 44 45 46 47 48 49 50
000
ASUS43 KFSD 230410
RWRSD

WEATHER ROUNDUP FOR SOUTH DAKOTA
NATIONAL WEATHER SERVICE SIOUX FALLS SD
1100 PM CDT TUE APR 22 2014

NOTE: "FAIR" INDICATES FEW OR NO CLOUDS BELOW 12,000 FEET WITH NO
SIGNIFICANT WEATHER AND/OR OBSTRUCTIONS TO VISIBILITY.


SDZ001>005-009-010-012>017-230500-
NORTHWEST AND NORTH CENTRAL SOUTH DAKOTA

CITY           SKY/WX    TMP DP  RH WIND       PRES   REMARKS
BUFFALO          N/A     57  33  40 E17       29.48F
MOBRIDGE       CLOUDY    57  32  38 SE35G47   29.69F
$$

SDZ012>016-024>037-041>051-057-063-072>074-230500-
SOUTHWEST AND SOUTH CENTRAL SOUTH DAKOTA

CITY           SKY/WX    TMP DP  RH WIND       PRES   REMARKS
RAPID CTY ARPT CLOUDY    60  43  53 S12       29.60R
PIERRE         NOT AVBL
CUSTER         CLOUDY    57  39  51 SE8       29.69F
ELLSWORTH AFB  CLOUDY    61  44  54 S9        29.58S
PHILIP         CLOUDY    64  46  52 SE16      29.60R
PINE RIDGE     CLOUDY    62  47  57 SE25G38   29.62F
SPEARFISH      FAIR      55  43  62 SE9       29.56F
WINNER         FAIR      64  32  30 SE24G33   29.76S
$$

SDZ004>011-016>023-039-040-230500-
NORTHEAST SOUTH DAKOTA

CITY           SKY/WX    TMP DP  RH WIND       PRES   REMARKS
ABERDEEN       CLOUDY    54  35  48 E14       29.87S
WATERTOWN      CLOUDY    54  34  46 SE14G23   29.93F
SISSETON         N/A     49  36  61 S9        29.96S
$$

SDZ017-020-022-023-036>040-048>070-230500-
SOUTHEAST SOUTH DAKOTA

CITY           SKY/WX    TMP DP  RH WIND       PRES   REMARKS
SIOUX FALLS    CLOUDY    58  34  40 SE16      29.95S
HURON          CLOUDY    58  32  37 SE15G26   29.86F
CHAMBERLAIN      N/A     60  32  34 SE29G39   29.78F
MITCHELL       CLOUDY    59  34  39 SE22G28   29.87F
YANKTON        PTCLDY    57  34  41 E13       29.93S
$$

ABBREVIATIONS USED IN REMARKS
   TC - TEMPERATURE IN CELSIUS
  WCI - WIND CHILL INDEX
   HX - HEAT INDEX
  VSB - VISIBILITY




USA.gov is the U.S. government's official web portal to all federal, state and local government web resources and services.